Regional Weather Roundup
Issued by NWS Upton, NY

Current Version | Previous Version | Graphics & Text | Print | Product List | Glossary Off
Versions: 1 2 3 4 5 6 7 8 9 10 11 12 13 14 15 16 17 18 19 20 21 22 23 24 25 26 27 28 29 30 31 32 33 34 35 36 37 38 39 40 41 42 43 44 45 46 47 48 49 50

000
ASUS41 KOKX 271305
RWROKX

REGIONAL WEATHER ROUNDUP
NATIONAL WEATHER SERVICE NEW YORK NY
800 AM EST TUE JAN 27 2015

NOTE: "FAIR" INDICATES FEW OR NO CLOUDS BELOW 12,000 FEET WITH NO
SIGNIFICANT WEATHER AND/OR OBSTRUCTIONS TO VISIBILITY.

NYZ071-072-176-178-NJZ106-104-271400-
NEW YORK CITY METRO AREA


CITY           SKY/WX    TMP DP  RH WIND       PRES   REMARKS
CENTRAL PARK   CLOUDY    23  13  65 VRB7G20   29.70R WCI  15
LAGUARDIA APRT CLOUDY    22  14  71 N18G32    29.67R WCI   7
KENNEDY INTL   LGT SNOW  22  14  71 N20G29    29.66R BLWGSNOWWCI   7
NEWARK/LIBERTY LGT SNOW  22  15  75 N16       29.71R WCI   8
BRNX BOT. GARD   N/A    N/A N/A N/A NW10      29.69S
TETERBORO      FLURRIES  23  13  65 N10G21    29.69R WCI  12
$$

NYZ177-179-078>081-271400-
LONG ISLAND NEW YORK

CITY           SKY/WX    TMP DP  RH WIND       PRES   REMARKS
FARMINGDALE    HAZE      21  16  81 N18G24    29.63R VSB 1/2 WCI   6
ISLIP          HVY SNOW  22  19  89 N17       29.58R VSB 1/8 WCI   8
SHIRLEY        FOG       21  18  88 N18G41    29.59R VSB 3/4 WCI   6
WESTHAMPTON    FOG       20  16  84 MISG      29.56R VSB 1/4
MONTAUK POINT    N/A     22  19  89 N20G32    29.50R WCI   7
$$

NYZ052-065-067-271400-
HUDSON VALLEY

CITY           SKY/WX    TMP DP  RH WIND       PRES   REMARKS
WHITE PLAINS   LGT SNOW  18  12  77 NW23G36   29.63R VSB 1   WCI   0
NEWBURGH       CLOUDY    19  12  73 N12G23    29.73R WCI   7
MONTGOMERY     CLOUDY    18  14  84 CALM      29.72R
POUGHKEEPSIE   CLOUDY    18   8  65 N16G24    29.75R HAZE    WCI   3
ALBANY         FLURRIES  13   1  59 N14       29.84R WCI  -2
$$

NJZ001-105-106-008-010-013-015-019>022-104-271400-
NEW JERSEY

CITY           SKY/WX    TMP DP  RH WIND       PRES   REMARKS
NEWARK/LIBERTY LGT SNOW  22  15  75 N16       29.71R WCI   8
TETERBORO      FLURRIES  23  13  65 N10G21    29.69R WCI  12
CALDWELL       CLOUDY    23  13  65 VRB6G16   29.71R WCI  16
MORRISTOWN     LGT SNOW  25  16  68 N12G25    29.71R WCI  14
SOMERVILLE     LGT SNOW  25  19  78 N7        29.71R WCI  17
SUSSEX         CLOUDY    22  12  65 NW7       29.71R WCI  13
ANDOVER          N/A     21  14  74 VRB7      29.71R WCI  12
TRENTON        LGT SNOW  24  20  84 NW10      29.71R FOG     WCI  14
MILLVILLE      FLURRIES  27  21  78 NW14G25   29.72R WCI  16
ATLANTIC CITY  LGT SNOW  24  20  84 N18G29    29.69R VSB 1   WCI  10
WRIGHTSTOWN    LGT SNOW  24  21  89 NW13      29.69R FOG     WCI  12
TOMS RIVER     CLOUDY    21  21 100 N15       29.69R WCI   8
BELMAR         CLOUDY    21  14  73 NW21G28   29.67R WCI   6
$$

PAZ047>061-062-071-271400-
EASTERN PENNSYLVANIA

CITY           SKY/WX    TMP DP  RH WIND       PRES   REMARKS
PHILADELPHIA   LGT SNOW  27  22  81 NW13      29.75R WCI  16
ALLENTOWN      CLOUDY    23  14  68 W7        29.75R WCI  15
SCRANTON       CLOUDY    19   9  65 N6        29.77R WCI  11
$$

CTZ002-004>006-009-010-012-RIZ004-006-007-MAZ004-011-015-271400-
SOUTHERN NEW ENGLAND
 IN CT

CITY           SKY/WX    TMP DP  RH WIND       PRES   REMARKS
BRADLEY INTL   SNOW      17  12  80 N22G31    29.62S VSB 1/8 WCI   0
HARTFORD       SNOW      17  13  84 N15G29    29.63R VSB 1/4 WCI   2
DANBURY        LGT SNOW  17  10  74 NW9       29.66R WCI   6
WTRBRY/OXFORD  CLOUDY    19  10  68 N21       29.58S VSB 3/4 WCI   3
BRIDGEPORT     FOG       22  19  89 NW18G26   29.60S VSB 3/4 WCI   7
MERIDEN        HAZE      19  14  81 N20G29    29.61R VSB 3/4 WCI   3
NEW HAVEN      LGT SNOW  20  16  84 N20G38    29.58R VSB 3/4 WCI   4
CHESTER        HVY SNOW  18  14  86 N20G33    29.54R VSB<1/4 WCI   1
GROTON         FOG       17  16  95 MISG      29.50R VSB 1/4
WILLIMANTIC    FOG       19  15  84 MISG      29.55F VSB<1/4

 IN RI

CITY           SKY/WX    TMP DP  RH WIND       PRES   REMARKS
PROVIDENCE     HVY SNOW  17  13  84 N32G43    29.52F VSB 1/4 WCI  -3
BLOCK ISLAND     N/A     21  16  79 NE30G47   29.40F VSB 1/2 WCI   3
WESTERLY       FOG       19  16  88 N17G31    29.47F VSB 1/4 WCI   4

 IN MA

CITY           SKY/WX    TMP DP  RH WIND       PRES   REMARKS
BOSTON         HVY SNOW  15  12  88 N24G36    29.58F VSB 1/8 WCI  -4
WORCESTER      FOG       13  11  92 NE23G54   29.51F VSB 1/4 WCI  -6
WESTFIELD      SNOW      17  12  80 N21G29    29.64F VSB 1/2 WCI   0
PROVINCETOWN   CLOUDY    27  25  93 N44G60    29.41F VSB<1/4 WCI   8
NANTUCKET      HVY SNOW  32  28  85 N49G60    29.20S WCI  14
$$

ANZ330-335-338-340-345-350-353-355-271400-
COASTAL MARINE OBSERVATIONS


STATION/POSITION TIME  SKY/WX   TEMP    WIND        PRES    VSBY  WAVE
                                AIR SEA DIR/SP/G                  HT/PER
                 (UTC)          (F)     (DEG/KT/KT) (MB)    (MI)  (FT/S)
NY HARB ENTRANCE 1300            25 43  340/ 27/ 33 1002.9         11/12
4S FIRE IS       1300               38                N/A          12/13
20S FIRE ISLAND  1200               43              1001.0         14/11
23SW MTP         1300                                 N/A          16/12
HUDSON CANYON    NOT AVBL
EXECUTION ROCKS  1300            22 34  350/ 19/ 27   N/A
WESTERN LI SOUND 1300            22     350/ 19/ 23   N/A           2/ 3
CENTRAL LI SOUND 1200            21 36  350/ 27/ 35   N/A           4/ 4
EASTERN LI SOUND NOT AVBL
ROBBINS REEF     1300            22     340/ 18/ 24 1004.1
$$


>>>>>>>>>>>>>>>>>>>>>>>>>>>> KEY <<<<<<<<<<<<<<<<<<<<<<<<<<<
>                                                          <
>     SKY/WX - SKY CONDITION/PRESENT WEATHER               <
>     TMP    - TEMPERATURE IN FAHRENHEIT                   <
>     DP     - DEWPOINT IN FAHRENHEIT                      <
>     RH     - RELATIVE HUMIDITY IN PERCENT                <
>     WIND   - DIRECTION AND SPEED IN MPH                  <
>     PRES   - MEAN SEA LEVEL PRESSURE IN INCHES OF HG     <
>     WCI    - WIND CHILL INDEX                            <
>     VSB    - VISIBILITY IN MILES                         <
>     HX     - HEAT INDEX                                  <
>     TC     - TEMPERATURE IN CELSIUS                      <
>     VRB    - VARIABLE WIND DIRECTION                     <
>                                                          <
>>>>>>>>>>>>>>>>>>>>>>>>>>>> KEY <<<<<<<<<<<<<<<<<<<<<<<<<<<





USA.gov is the U.S. government's official web portal to all federal, state and local government web resources and services.